AirNav   Phillips 66 Aviation Fuel
 
 899 users online  

38PA Aerequus Airport
Solebury, Pennsylvania, USA

GOING TO SOLEBURY?


FAA INFORMATION EFFECTIVE 29 MARCH 2018

Location

FAA Identifier: 38PA
Lat/Long: 40-23-25.7600N / 075-00-54.3000W
40-23.429333N / 075-00.905000W
40.3904889 / -75.0150833
(estimated)
Elevation: 390 ft. / 119 m (estimated)
Variation: 12W (1985)
From city: 1 mile NW of SOLEBURY, PA
Time zone: UTC -4 (UTC -5 during Standard Time)
Zip code: 18938

Airport Operations

Airport use: Private use. Permission required prior to landing
Activation date: 05/1965
Control tower: no
ARTCC: NEW YORK CENTER
FSS: WILLIAMSPORT FLIGHT SERVICE STATION
Attendance: UNATNDD
Wind indicator: yes
Segmented circle: no

Airport Communications

WX ASOS at DYL (6 nm SW): 118.875 (215-345-0392)
WX ASOS at TTN (11 nm SE): 126.775 (609-538-8690)
WX AWOS-3 at CKZ (13 nm W): 126.325 (215-257-7291)
WX AWOS-3 at UKT (17 nm W): 119.475 (215-538-7610)
WX ASOS at PNE (19 nm S): PHONE 215-677-0146
WX AWOS-3 at LOM (19 nm SW): 118.925 (215-646-1068)

Nearby radio navigation aids

VOR radial/distance  VOR name  Freq  Var
ARDr339/9.6YARDLEY VOR/DME108.2010W
SBJr237/17.0SOLBERG VOR/DME112.9010W
PNEr009/(18.5)NORTH PHILADELPHIA VOR112.0010W
BWZr211/26.0BROADWAY VOR/DME114.2011W
RBVr305/26.3ROBBINSVILLE VORTAC113.8010W
PTWr077/26.9POTTSTOWN VORTAC116.5009W
FJCr145/28.4ALLENTOWN VORTAC117.5010W
GXUr332/29.8MC GUIRE VORTAC110.6012W
ETXr120/32.6EAST TEXAS VOR/DME110.2009W
STWr201/36.9STILLWATER VOR/DME109.6011W
COLr288/39.4COLTS NECK VOR/DME115.4011W

 
NDB name  Hdg/Dist  Freq  Var  ID
AMBLER050/20.127512WING .. -. --.
CHATHAM245/34.025413WCAT -.-. .- -
LAKEHURST315/37.439611WNEL -. . .-..

Airport Services

Airframe service: NONE
Powerplant service: NONE

Runway Information

Runway 5/23

Dimensions: 1400 x 100 ft. / 427 x 30 m
Surface: turf
RUNWAY 5  RUNWAY 23
Traffic pattern: leftleft
Obstructions: treesnone

Airport Ownership and Management from official FAA records

Ownership: Privately-owned
Owner: ROBERT N. DUSEK
6616 PAXON RD. BOX 149
SOLEBURY, PA 18963
Phone 215-297-5430

Instrument Procedures

There are no published instrument procedures at 38PA.

Some nearby airports with instrument procedures:

KDYL - Doylestown Airport (6 nm SW)
N40 - Sky Manor Airport (11 nm N)
KTTN - Trenton Mercer Airport (11 nm SE)
N85 - Alexandria Airport (12 nm N)
KCKZ - Pennridge Airport (13 nm W)
39N - Princeton Airport (16 nm E)
KUKT - Quakertown Airport (17 nm W)
N51 - Solberg-Hunterdon Airport (17 nm NE)
KPNE - Northeast Philadelphia Airport (19 nm S)
KLOM - Wings Field Airport (19 nm SW)
 
Loc | Ops | Rwys | IFR | FBO | Links
Com | Nav | Svcs | Stats | Notes

AirNav Hotels Sweepstakes
 
Area around 38PA (Aerequus Airport)
 
Road maps at: MapQuest Bing Google
 
Aerial photo
No photo
 
Sectional chart

 
Airport distance calculator
Flying to Aerequus Airport? Find the distance to fly.

From to 38PA

Sunrise and sunset
Times for 22-Apr-2018
 Local
(UTC-4)
 Zulu
(UTC)
Morning civil twilight05:4409:44
Sunrise06:1210:12
Sunset19:4523:45
Evening civil twilight20:1400:14

Current date and time
Zulu (UTC)  23-Apr-2018 02:34:13
Local (UTC-4)  22-Apr-2018 22:34:13
 
METAR
KDYL 
6nm SW 
230154Z AUTO 00000KT 10SM CLR 10/M03 A3036 RMK AO2 SLP280 T01001028 $
KTTN 
11nm SE 
ASOS 133.70 609-538-8690
230153Z 18006KT 10SM CLR 11/M02 A3037 RMK AO2 SLP278 T01061017
KCKZ 
13nm W 
230215Z AUTO 26003KT 10SM FEW046 08/M05 A3037 RMK AO2
KUKT 
17nm W 
230215Z AUTO 00000KT 10SM CLR 07/M01 A3037 RMK A01
KPNE 
18nm S 
230154Z VRB06KT 10SM CLR 13/M01 A3039 RMK AO2 SLP292 T01331006
KLOM 
19nm SW 
230215Z AUTO 22003KT 10SM CLR 11/00 A3039 RMK AO1
TAF
KTTN 
11nm SE 
222002Z 2220/2318 27010KT P6SM SCT250 FM230000 VRB03KT P6SM SKC FM231500 13006KT P6SM SKC
KPNE 
18nm S 
221723Z 2218/2318 30006KT P6SM SCT250 FM222100 23008KT P6SM SCT250 FM230000 17005KT P6SM SKC FM230200 VRB03KT P6SM SKC FM231500 13006KT P6SM SKC
NOTAMs
Click for the latest NOTAMs
NOTAMs are issued by the DoD/FAA and will open in a separate window not controlled by AirNav.

 

 
 

Would you like to see your business listed on this page?

 If your business provides an interesting product or service to pilots, flight crews, aircraft, or users of the Aerequus Airport, you should consider listing it here.  To start the listing process, click on the button below
 
Add a business
 

Other Pages about Aerequus Airport

Update a link
 
Copyright © AirNav, LLC. All rights reserved. Privacy Policy  Contact